STARLINK-31855, 59838

Orbit data source: Space-Track

STARLINK-31855, 59838 is a payload satellite owned by SpaceX/Seattle (US) in LEO that was launched on Thu, 23 May 2024 UTC via an FALCON 9 launch vehicle from the Air Force Eastern Test Range (AFETR). Payload-class satellites include a variety of spacecraft equipped with specific instruments for various scientific and technological missions. These include communications satellites like Starlink; space stations such as the ISS; scientific satellites like the Hubble; Earth observation satellites from companies like Planet Labs, Umbra, and HawkEye 360; GPS; miniature CubeSats for education and research; and military/defense satellites.

Loading next visibility...
Identifier
59838, 2024-097D
Orbit
LEO
Country
Flag of USUS
Related business
Manufacturer
SpaceX/Seattle
Mission
Operational Commercial Communications
Bus & Motor
STARLINK V2M, Unknown motor
Mass
730 kg wet, ~700 kg dry
Launch date (UTC)
2024-05-23 (2 years ago)
Launch vehicle
FALCON 9
Launch site
Air Force Eastern Test Range (AFETR)
Object type
Payload
Rocket body
Debris
Shape & HBR
Box + 2 Pan, 17.7 m
Radar Cross Section
33.884 m², Large (>1 m²)

Expand to show TLE details & history
Last TLE update: 2 days ago

TLE from 2 days ago
0 STARLINK-31855
1 59838U 24097D   26171.37053337  .00018291  00000-0  67263-3 0  9991
2 59838  42.9976  54.1973 0000745   3.6537 356.4319 15.27576959117625
Epoch: 2026-06-20T08:53Z
TLE epoch observation values (Epoch: 2026-06-20T08:53:34.083Z)
Latitude
-0.00007°
Longitude
12.21909°
Altitude
482.323 km
Speed
7.626 km/s
True Right ascension
03h 36m 47s
True Declination
0° 00' 00"
Sunlit
Object was in daylight at epoch
Visualization orbit readout
Latitude
Unknown
Longitude
Unknown
Altitude
Unknown
Speed
Unknown
Apparent Right ascension
Unknown
Apparent Declination
Unknown
Sunlit
N/A
Visualization observer readout
Local Sidereal Time
21:30:58
Azimuth
Unknown
Elevation
Unknown
Doppler factor
Unknown
Orbital elements
Apogee altitude
485.515 km
Perigee altitude
484.492 km
Semi-major axis
6,863.141 km
Eccentricity
0.00007
Inclination
42.9976°
RAAN
54.1973°
Arg. of periapsis
3.6537°
True anomaly
356.43137°
Mean anomaly
356.4319°
Eccentric anomaly
356.43163°
Mean motion
3.81732 °/min
Orbital period
94.31 mins
BSTAR
0.00067263
Loading maneuver chart data...
Computing Atmospheric mass density...
Loading historical data...
Loading historical data...
Loading historical data...
Loading historical data...
Loading historical data...
Loading historical data...
Loading historical data...

Documentation

Showing up to 5 results
|